contact:dominique.lefevre@mio.osupytheas.fr, maurice.libes@osupytheas.fr, didier.mallarino@osupytheas.fr
Project:EMSO http://www.emso-fr.org/EMSO-France
Depth: 2436.0 m
Title:EMSO Ligure Ouest : Data MII capteur AQUADOPP
Date,Latitude,Longitude,X_East,Y_North,Z_Up,Amplitude_X,Amplitude_Y,Amplitude_Z,Batterie,SoundSpeed,Heading,Pitch,Roll,Pressure,TIS,Speed,Direction
, degrees North, degrees East, m.s-1, m.s-1,m.s-1, 1, 1, 1, Volt, m.s-1, degree, degree, degree, dbar, degree_C, m.s-1, degree
2022-06-13T00:04:03,42.805,6.029,0.021,-0.028,-0.037,103.0,103.0,101.0,13.4,1505.2,327.1,-0.8,1.8,2470.795,13.28,0.035,143.1
2022-06-13T00:07:03,42.805,6.029,0.02,-0.048,-0.021,103.0,103.0,101.0,13.3,1505.2,332.9,-0.8,1.8,2470.799,13.28,0.052,157.4
2022-06-13T00:10:03,42.805,6.029,0.009,-0.025,-0.042,103.0,103.0,100.0,13.4,1505.2,326.4,-0.8,1.8,2470.793,13.28,0.026,160.2
2022-06-13T00:13:03,42.805,6.029,0.016,-0.018,0.002,103.0,101.0,102.0,13.4,1505.2,332.5,-0.8,1.8,2470.755,13.28,0.024,138.4
2022-06-13T00:16:03,42.805,6.029,0.0,-0.047,-0.026,103.0,103.0,100.0,13.4,1505.2,329.2,-0.8,1.8,2470.788,13.28,0.047,180.0
2022-06-13T00:19:03,42.805,6.029,0.028,-0.03,-0.036,103.0,103.0,99.0,13.3,1505.2,328.4,-0.8,1.8,2470.772,13.28,0.041,137.0
2022-06-13T00:22:03,42.805,6.029,0.019,-0.027,-0.031,102.0,103.0,101.0,13.4,1505.2,328.9,-0.7,1.8,2470.762,13.28,0.033,144.9
2022-06-13T00:25:03,42.805,6.029,0.02,-0.015,-0.01,102.0,102.0,101.0,13.4,1505.2,324.6,-0.8,1.8,2470.78,13.28,0.025,126.9
2022-06-13T00:28:03,42.805,6.029,0.011,-0.029,-0.012,103.0,103.0,101.0,13.3,1505.2,330.1,-0.7,1.8,2470.775,13.28,0.031,159.2
2022-06-13T00:31:03,42.805,6.029,-0.003,-0.005,0.0,103.0,102.0,101.0,13.4,1505.2,328.0,-0.7,1.8,2470.785,13.28,0.005,211.0
2022-06-13T00:34:03,42.805,6.029,0.004,-0.013,-0.023,103.0,103.0,100.0,13.4,1505.2,334.1,-0.8,1.8,2470.74,13.28,0.013,162.9
2022-06-13T00:37:03,42.805,6.029,0.01,-0.019,-0.03,102.0,103.0,102.0,13.3,1505.2,329.8,-0.8,1.8,2470.78,13.28,0.021,152.2
2022-06-13T00:40:03,42.805,6.029,-0.003,-0.001,-0.018,106.0,102.0,103.0,13.3,1505.2,328.5,-0.7,1.8,2470.75,13.28,0.003,251.6
2022-06-13T00:43:03,42.805,6.029,0.021,-0.003,0.004,101.0,103.0,101.0,13.4,1505.2,325.3,-0.8,1.8,2470.767,13.28,0.021,98.1
2022-06-13T00:46:03,42.805,6.029,0.007,-0.016,-0.041,103.0,102.0,100.0,13.3,1505.2,325.8,-0.8,1.8,2470.759,13.28,0.017,156.4
2022-06-13T00:49:03,42.805,6.029,0.001,-0.031,-0.042,103.0,103.0,100.0,13.4,1505.2,322.7,-0.8,1.8,2470.771,13.28,0.031,178.2
2022-06-13T00:52:03,42.805,6.029,-0.004,-0.012,-0.013,102.0,102.0,101.0,13.4,1505.2,322.9,-0.8,1.8,2470.73,13.28,0.012,198.4
2022-06-13T00:55:03,42.805,6.029,0.0,-0.019,-0.036,102.0,101.0,102.0,13.3,1505.2,326.5,-0.7,1.8,2470.752,13.28,0.019,180.0
2022-06-13T00:58:03,42.805,6.029,0.019,-0.042,-0.084,102.0,103.0,100.0,13.3,1505.2,333.0,-0.8,1.8,2470.76,13.28,0.046,155.7
2022-06-13T01:04:03,42.805,6.029,-0.015,-0.022,-0.004,103.0,103.0,103.0,13.4,1505.2,327.8,-0.7,1.8,2470.789,13.28,0.026,214.3
2022-06-13T01:07:03,42.805,6.029,0.011,-0.022,0.0,102.0,104.0,100.0,13.4,1505.2,329.2,-0.8,1.8,2470.847,13.28,0.024,153.4
2022-06-13T01:10:03,42.805,6.029,0.017,0.0,-0.003,102.0,102.0,100.0,13.4,1505.2,322.4,-0.8,1.8,2470.783,13.28,0.017,90.0
2022-06-13T01:13:03,42.805,6.029,-0.006,-0.009,0.014,102.0,102.0,101.0,13.4,1505.2,324.2,-0.7,1.8,2470.828,13.28,0.01,213.7
2022-06-13T01:16:03,42.805,6.029,0.008,-0.025,0.01,102.0,102.0,101.0,13.4,1505.2,329.9,-0.8,1.8,2470.813,13.28,0.026,162.3
2022-06-13T01:19:03,42.805,6.029,-0.018,-0.042,-0.022,103.0,103.0,100.0,13.4,1505.2,326.7,-0.7,1.8,2470.776,13.28,0.045,203.2
2022-06-13T01:22:03,42.805,6.029,0.002,-0.021,-0.014,101.0,104.0,102.0,13.3,1505.2,327.7,-0.7,1.8,2470.795,13.28,0.021,174.6
2022-06-13T01:25:03,42.805,6.029,0.021,-0.021,-0.04,102.0,102.0,100.0,13.3,1505.2,322.6,-0.8,1.8,2470.777,13.28,0.029,135.0
2022-06-13T01:28:03,42.805,6.029,0.013,-0.018,-0.032,102.0,103.0,101.0,13.4,1505.2,326.1,-0.8,1.8,2470.771,13.28,0.022,144.2
2022-06-13T01:31:03,42.805,6.029,-0.008,-0.013,-0.028,104.0,102.0,102.0,13.4,1505.2,329.7,-0.7,1.8,2470.775,13.28,0.015,211.6
2022-06-13T01:34:03,42.805,6.029,-0.005,-0.012,-0.012,103.0,103.0,101.0,13.4,1505.2,327.2,-0.8,1.8,2470.8,13.28,0.013,202.6
2022-06-13T01:37:03,42.805,6.029,0.01,-0.027,-0.012,103.0,102.0,101.0,13.4,1505.2,330.3,-0.7,1.8,2470.756,13.28,0.028,159.7
2022-06-13T01:40:03,42.805,6.029,0.003,-0.004,-0.017,104.0,103.0,101.0,13.4,1505.2,322.6,-0.7,1.8,2470.756,13.28,0.005,143.1
2022-06-13T01:43:03,42.805,6.029,0.025,-0.034,-0.029,103.0,102.0,101.0,13.4,1505.2,327.4,-0.8,1.8,2470.742,13.28,0.042,143.7
2022-06-13T01:46:03,42.805,6.029,0.01,-0.02,0.003,103.0,103.0,100.0,13.3,1505.2,328.3,-0.7,1.8,2470.772,13.28,0.022,153.4
2022-06-13T01:49:03,42.805,6.029,0.019,-0.017,-0.012,103.0,102.0,101.0,13.4,1505.2,329.4,-0.8,1.8,2470.791,13.28,0.025,131.8
2022-06-13T01:52:03,42.805,6.029,0.029,-0.018,-0.028,102.0,102.0,101.0,13.3,1505.2,331.4,-0.8,1.8,2470.787,13.28,0.034,121.8
2022-06-13T01:55:03,42.805,6.029,0.021,-0.013,-0.002,101.0,103.0,102.0,13.4,1505.2,322.4,-0.8,1.8,2470.738,13.28,0.024,121.8
2022-06-13T01:58:03,42.805,6.029,0.001,-0.023,-0.024,104.0,102.0,100.0,13.3,1505.2,331.4,-0.7,1.8,2470.779,13.28,0.023,177.5
2022-06-13T02:04:03,42.805,6.029,0.0,-0.008,-0.022,103.0,104.0,100.0,13.4,1505.2,328.7,-0.8,1.8,2470.808,13.28,0.008,180.0
2022-06-13T02:07:03,42.805,6.029,0.004,-0.003,-0.007,102.0,106.0,101.0,13.4,1505.2,325.3,-0.7,1.8,2470.812,13.28,0.005,126.9
2022-06-13T02:10:03,42.805,6.029,0.017,-0.022,-0.015,102.0,102.0,100.0,13.3,1505.2,324.8,-0.7,1.8,2470.831,13.28,0.027,142.3
2022-06-13T02:13:03,42.805,6.029,0.003,-0.004,-0.018,103.0,103.0,100.0,13.4,1505.2,326.4,-0.8,1.8,2470.812,13.28,0.005,143.1
2022-06-13T02:16:03,42.805,6.029,0.0,-0.002,-0.004,103.0,101.0,101.0,13.4,1505.2,328.0,-0.8,1.8,2470.793,13.28,0.002,180.0
2022-06-13T02:19:03,42.805,6.029,0.0,-0.027,-0.012,103.0,104.0,100.0,13.3,1505.2,330.6,-0.7,1.8,2470.813,13.28,0.026,180.0
2022-06-13T02:22:03,42.805,6.029,0.016,-0.024,-0.032,102.0,103.0,100.0,13.4,1505.2,329.7,-0.8,1.8,2470.806,13.28,0.028,146.3
2022-06-13T02:25:03,42.805,6.029,0.009,-0.012,-0.007,103.0,103.0,102.0,13.4,1505.2,326.5,-0.8,1.8,2470.789,13.28,0.015,143.1
2022-06-13T02:28:03,42.805,6.029,0.017,-0.037,0.0,103.0,103.0,99.0,13.4,1505.2,332.5,-0.7,1.8,2470.793,13.28,0.04,155.3
2022-06-13T02:31:03,42.805,6.029,0.002,0.005,-0.033,102.0,102.0,101.0,13.3,1505.2,324.5,-0.7,1.8,2470.792,13.28,0.005,21.8
2022-06-13T02:34:03,42.805,6.029,-0.009,-0.003,-0.022,104.0,104.0,100.0,13.4,1505.2,327.5,-0.7,1.8,2470.819,13.28,0.009,251.6
2022-06-13T02:37:03,42.805,6.029,-0.007,-0.012,-0.019,103.0,102.0,101.0,13.4,1505.2,324.9,-0.7,1.8,2470.792,13.28,0.013,210.3
2022-06-13T02:40:03,42.805,6.029,-0.009,-0.024,0.001,103.0,103.0,101.0,13.4,1505.2,326.4,-0.8,1.8,2470.86,13.28,0.025,200.6
2022-06-13T02:43:03,42.805,6.029,0.016,-0.033,-0.024,104.0,102.0,101.0,13.4,1505.2,330.8,-0.8,1.8,2470.821,13.28,0.036,154.1
2022-06-13T02:46:03,42.805,6.029,0.037,-0.023,0.0,103.0,102.0,101.0,13.4,1505.2,329.4,-0.8,1.8,2470.805,13.28,0.043,121.9
2022-06-13T02:49:03,42.805,6.029,-0.011,-0.023,-0.04,102.0,101.0,101.0,13.4,1505.2,327.7,-0.7,1.8,2470.85,13.28,0.025,205.6
2022-06-13T02:52:03,42.805,6.029,0.01,-0.015,-0.027,102.0,103.0,101.0,13.4,1505.2,322.8,-0.7,1.8,2470.839,13.28,0.018,146.3
2022-06-13T02:55:03,42.805,6.029,-0.011,-0.018,-0.014,103.0,103.0,100.0,13.4,1505.2,326.9,-0.8,1.9,2470.863,13.28,0.021,211.4
2022-06-13T02:58:03,42.805,6.029,-0.007,-0.026,-0.053,103.0,101.0,101.0,13.3,1505.2,323.3,-0.7,1.8,2470.829,13.28,0.026,195.1
2022-06-13T03:04:03,42.805,6.029,0.028,-0.018,0.003,103.0,103.0,101.0,13.3,1505.2,327.7,-0.8,1.8,2470.845,13.28,0.033,122.7
2022-06-13T03:07:03,42.805,6.029,0.004,0.0,-0.011,103.0,101.0,100.0,13.4,1505.2,329.3,-0.7,1.8,2470.831,13.28,0.004,90.0
2022-06-13T03:10:03,42.805,6.029,0.005,-0.023,-0.022,103.0,102.0,103.0,13.4,1505.2,333.2,-0.8,1.8,2470.894,13.28,0.023,167.7
2022-06-13T03:13:03,42.805,6.029,0.01,-0.02,-0.024,103.0,102.0,100.0,13.4,1505.2,322.3,-0.8,1.8,2470.88,13.28,0.022,153.4
2022-06-13T03:16:03,42.805,6.029,0.014,-0.026,-0.025,103.0,103.0,100.0,13.4,1505.2,325.3,-0.8,1.9,2470.851,13.28,0.029,151.7
2022-06-13T03:19:03,42.805,6.029,0.006,-0.008,-0.029,103.0,102.0,101.0,13.3,1505.2,326.7,-0.8,1.8,2470.842,13.28,0.01,143.1
2022-06-13T03:22:03,42.805,6.029,0.031,-0.014,-0.006,103.0,102.0,100.0,13.3,1505.2,326.5,-0.8,1.8,2470.88,13.28,0.034,114.3
2022-06-13T03:25:03,42.805,6.029,0.009,-0.024,0.001,103.0,101.0,100.0,13.4,1505.2,323.7,-0.8,1.8,2470.856,13.28,0.025,159.4
2022-06-13T03:28:03,42.805,6.029,0.017,-0.02,-0.044,103.0,102.0,100.0,13.3,1505.2,327.3,-0.8,1.8,2470.868,13.28,0.026,139.6
2022-06-13T03:31:03,42.805,6.029,-0.008,-0.019,-0.015,103.0,102.0,100.0,13.4,1505.2,323.1,-0.8,1.8,2470.842,13.28,0.02,202.8
2022-06-13T03:34:03,42.805,6.029,0.0,-0.028,-0.019,101.0,102.0,100.0,13.4,1505.2,333.4,-0.8,1.8,2470.83,13.28,0.028,180.0
2022-06-13T03:37:03,42.805,6.029,-0.006,-0.021,-0.037,104.0,101.0,100.0,13.3,1505.2,324.0,-0.8,1.8,2470.863,13.28,0.021,195.9
2022-06-13T03:40:03,42.805,6.029,0.002,-0.019,-0.054,103.0,102.0,101.0,13.4,1505.2,330.1,-0.8,1.8,2470.857,13.29,0.019,174.0
2022-06-13T03:43:03,42.805,6.029,0.023,-0.041,-0.04,105.0,103.0,101.0,13.4,1505.2,325.2,-0.8,1.8,2470.887,13.28,0.047,150.7
2022-06-13T03:46:03,42.805,6.029,0.001,-0.016,-0.034,103.0,102.0,102.0,13.4,1505.2,328.2,-0.8,1.9,2470.867,13.29,0.016,176.4
2022-06-13T03:49:03,42.805,6.029,0.005,0.001,-0.002,103.0,102.0,101.0,13.4,1505.2,326.0,-0.8,1.8,2470.884,13.29,0.005,78.7
2022-06-13T03:52:03,42.805,6.029,0.014,-0.012,-0.045,103.0,102.0,101.0,13.4,1505.2,326.8,-0.8,1.8,2470.838,13.28,0.018,130.6
2022-06-13T03:55:03,42.805,6.029,-0.017,-0.016,-0.027,103.0,102.0,100.0,13.4,1505.2,323.3,-0.8,1.8,2470.853,13.29,0.023,226.7
2022-06-13T03:58:03,42.805,6.029,0.002,-0.009,-0.032,102.0,102.0,102.0,13.4,1505.2,330.4,-0.7,1.8,2470.87,13.29,0.009,167.5
2022-06-13T04:04:03,42.805,6.029,0.012,-0.017,-0.016,104.0,102.0,101.0,13.4,1505.2,328.6,-0.8,1.9,2470.937,13.28,0.02,144.8
2022-06-13T04:07:03,42.805,6.029,0.0,-0.014,-0.01,103.0,103.0,102.0,13.4,1505.2,333.8,-0.8,1.8,2470.962,13.28,0.014,180.0
2022-06-13T04:10:03,42.805,6.029,0.012,0.0,-0.031,103.0,102.0,100.0,13.4,1505.2,328.9,-0.7,1.8,2470.942,13.28,0.012,90.0
2022-06-13T04:13:03,42.805,6.029,0.018,-0.014,-0.017,103.0,102.0,100.0,13.3,1505.2,328.0,-0.8,1.8,2470.939,13.28,0.022,127.9
2022-06-13T04:16:03,42.805,6.029,0.009,-0.02,-0.035,103.0,100.0,101.0,13.4,1505.2,320.9,-0.7,1.8,2470.919,13.28,0.021,155.8
2022-06-13T04:19:03,42.805,6.029,-0.006,-0.041,-0.033,104.0,102.0,101.0,13.4,1505.2,332.3,-0.8,1.8,2470.908,13.28,0.041,188.3
2022-06-13T04:22:03,42.805,6.029,0.001,-0.016,-0.026,102.0,103.0,101.0,13.4,1505.2,325.1,-0.8,1.8,2470.906,13.28,0.016,176.4
2022-06-13T04:25:03,42.805,6.029,0.014,-0.029,-0.001,103.0,102.0,100.0,13.3,1505.2,322.3,-0.8,1.8,2470.898,13.28,0.032,154.2
2022-06-13T04:28:03,42.805,6.029,0.004,-0.03,-0.027,103.0,103.0,100.0,13.3,1505.2,328.5,-0.8,1.8,2470.893,13.28,0.03,172.4
2022-06-13T04:31:03,42.805,6.029,-0.003,-0.007,-0.028,103.0,102.0,101.0,13.4,1505.2,329.3,-0.8,1.8,2470.902,13.28,0.007,203.2
2022-06-13T04:34:03,42.805,6.029,-0.004,0.007,-0.032,103.0,102.0,99.0,13.4,1505.2,333.6,-0.7,1.8,2470.88,13.28,0.008,330.3
2022-06-13T04:37:03,42.805,6.029,-0.03,-0.011,-0.03,103.0,102.0,102.0,13.3,1505.2,325.8,-0.8,1.8,2470.879,13.28,0.031,249.9
2022-06-13T04:40:03,42.805,6.029,0.014,-0.026,-0.018,103.0,102.0,100.0,13.4,1505.2,327.9,-0.8,1.8,2470.931,13.28,0.029,151.7
2022-06-13T04:43:03,42.805,6.029,0.004,-0.03,-0.07,103.0,103.0,101.0,13.3,1505.2,325.6,-0.7,1.8,2470.882,13.29,0.03,172.4
2022-06-13T04:46:03,42.805,6.029,-0.001,0.006,-0.007,105.0,102.0,100.0,13.4,1505.2,320.4,-0.8,1.9,2470.894,13.29,0.006,350.5
2022-06-13T04:49:03,42.805,6.029,0.006,-0.01,-0.039,103.0,103.0,101.0,13.3,1505.2,327.2,-0.8,1.8,2470.938,13.29,0.011,149.0
2022-06-13T04:52:03,42.805,6.029,0.008,-0.015,-0.022,104.0,103.0,99.0,13.4,1505.2,327.5,-0.7,1.8,2470.937,13.29,0.017,151.9
2022-06-13T04:55:03,42.805,6.029,0.005,-0.012,-0.02,103.0,102.0,101.0,13.4,1505.2,330.9,-0.8,1.8,2470.894,13.29,0.013,157.4
2022-06-13T04:58:03,42.805,6.029,0.021,-0.02,-0.032,103.0,102.0,102.0,13.4,1505.2,326.1,-0.8,1.8,2470.891,13.28,0.028,133.6
2022-06-13T05:04:03,42.805,6.029,-0.014,-0.005,-0.016,104.0,103.0,101.0,13.4,1505.2,324.4,-0.7,1.8,2470.979,13.28,0.014,250.4
2022-06-13T05:07:03,42.805,6.029,0.038,-0.027,-0.016,103.0,103.0,100.0,13.3,1505.2,328.7,-0.8,1.8,2470.948,13.28,0.046,125.4
2022-06-13T05:10:03,42.805,6.029,0.007,-0.01,0.009,105.0,101.0,101.0,13.4,1505.2,326.9,-0.7,1.8,2470.935,13.28,0.012,145.0
2022-06-13T05:13:03,42.805,6.029,-0.035,0.012,0.0,102.0,102.0,100.0,13.4,1505.2,320.3,-0.8,1.8,2470.939,13.28,0.037,288.9
2022-06-13T05:16:03,42.805,6.029,0.001,-0.017,-0.05,103.0,102.0,101.0,13.4,1505.2,329.7,-0.7,1.8,2470.946,13.28,0.017,176.6
2022-06-13T05:19:03,42.805,6.029,-0.019,-0.042,-0.039,103.0,103.0,100.0,13.4,1505.2,332.9,-0.8,1.8,2470.925,13.28,0.046,204.3
2022-06-13T05:22:03,42.805,6.029,-0.012,-0.008,-0.017,104.0,102.0,99.0,13.3,1505.2,326.9,-0.7,1.8,2470.938,13.28,0.014,236.3
2022-06-13T05:25:03,42.805,6.029,0.008,-0.028,-0.032,103.0,102.0,100.0,13.4,1505.2,327.0,-0.8,1.8,2470.945,13.28,0.029,164.1
2022-06-13T05:28:03,42.805,6.029,0.0,-0.019,-0.046,105.0,102.0,101.0,13.4,1505.2,325.0,-0.8,1.8,2470.935,13.29,0.019,180.0
2022-06-13T05:31:03,42.805,6.029,-0.016,-0.005,-0.012,102.0,103.0,101.0,13.4,1505.2,331.5,-0.8,1.8,2470.93,13.29,0.016,252.6
2022-06-13T05:34:03,42.805,6.029,0.0,-0.017,-0.021,103.0,103.0,101.0,13.3,1505.2,327.1,-0.7,1.8,2470.906,13.28,0.017,180.0
2022-06-13T05:37:03,42.805,6.029,0.008,0.005,-0.02,103.0,102.0,100.0,13.3,1505.2,328.3,-0.7,1.8,2470.928,13.29,0.009,58.0
2022-06-13T05:40:03,42.805,6.029,-0.014,-0.014,-0.006,102.0,102.0,99.0,13.4,1505.2,327.4,-0.8,1.8,2470.943,13.29,0.019,225.0
2022-06-13T05:43:03,42.805,6.029,-0.011,-0.008,-0.047,103.0,102.0,99.0,13.4,1505.2,324.2,-0.7,1.8,2470.908,13.29,0.013,234.0
2022-06-13T05:46:03,42.805,6.029,0.0,0.002,-0.008,103.0,101.0,100.0,13.4,1505.2,330.9,-0.7,1.8,2470.901,13.29,0.002,0.0
2022-06-13T05:49:03,42.805,6.029,0.018,-0.023,-0.008,103.0,103.0,101.0,13.3,1505.2,321.7,-0.7,1.8,2470.913,13.29,0.029,142.0
2022-06-13T05:52:03,42.805,6.029,0.009,-0.007,-0.008,104.0,101.0,100.0,13.4,1505.2,329.3,-0.7,1.8,2470.96,13.29,0.011,127.9
2022-06-13T05:55:03,42.805,6.029,-0.01,-0.002,-0.016,104.0,102.0,100.0,13.4,1505.2,327.6,-0.7,1.8,2470.949,13.29,0.01,258.7
2022-06-13T05:58:03,42.805,6.029,-0.002,-0.017,-0.013,104.0,103.0,101.0,13.3,1505.2,325.5,-0.7,1.8,2470.912,13.29,0.017,186.7
2022-06-13T06:01:03,42.805,6.029,-0.007,-0.004,-0.025,102.0,102.0,101.0,13.4,1505.2,321.7,-0.7,1.8,2470.947,13.29,0.008,240.3
2022-06-13T06:04:03,42.805,6.029,-0.014,0.005,0.0,103.0,102.0,100.0,13.4,1505.2,327.0,-0.8,1.8,2470.915,13.29,0.014,289.6
2022-06-13T06:07:03,42.805,6.029,-0.01,-0.008,-0.032,102.0,102.0,102.0,13.4,1505.2,320.9,-0.7,1.8,2470.914,13.29,0.012,231.3
2022-06-13T06:10:03,42.805,6.029,-0.02,-0.011,-0.009,101.0,102.0,101.0,13.4,1505.2,328.1,-0.8,1.9,2470.938,13.29,0.022,241.2
2022-06-13T06:13:03,42.805,6.029,-0.031,-0.008,-0.051,102.0,102.0,101.0,13.4,1505.2,324.2,-0.8,1.8,2470.953,13.29,0.032,255.5
2022-06-13T06:16:03,42.805,6.029,0.007,-0.017,-0.028,103.0,101.0,101.0,13.3,1505.2,324.7,-0.8,1.8,2470.918,13.29,0.018,157.6
2022-06-13T06:19:03,42.805,6.029,0.005,-0.024,-0.041,101.0,103.0,99.0,13.4,1505.2,322.8,-0.8,1.8,2470.927,13.29,0.024,168.2
2022-06-13T06:22:03,42.805,6.029,0.012,-0.023,-0.046,100.0,103.0,102.0,13.4,1505.2,327.7,-0.8,1.8,2470.942,13.29,0.025,152.4
2022-06-13T06:25:03,42.805,6.029,0.005,-0.017,-0.022,103.0,102.0,101.0,13.4,1505.2,320.5,-0.8,1.8,2470.925,13.29,0.017,163.6
2022-06-13T06:28:03,42.805,6.029,-0.024,-0.014,-0.01,103.0,103.0,102.0,13.4,1505.2,323.7,-0.8,1.8,2470.956,13.29,0.027,239.7
2022-06-13T06:31:03,42.805,6.029,0.01,-0.007,-0.019,104.0,102.0,101.0,13.4,1505.2,330.5,-0.7,1.9,2470.945,13.29,0.012,125.0
2022-06-13T06:34:03,42.805,6.029,-0.013,0.0,-0.045,102.0,102.0,102.0,13.3,1505.2,325.9,-0.8,1.8,2470.922,13.29,0.013,270.0
2022-06-13T06:37:03,42.805,6.029,-0.008,-0.014,-0.026,102.0,102.0,101.0,13.4,1505.2,325.6,-0.8,1.8,2470.914,13.29,0.016,209.7
2022-06-13T06:40:03,42.805,6.029,0.0,-0.032,-0.028,103.0,103.0,100.0,13.4,1505.2,327.0,-0.7,1.8,2470.942,13.29,0.032,180.0
2022-06-13T06:43:03,42.805,6.029,0.015,-0.009,-0.01,104.0,103.0,99.0,13.4,1505.2,331.4,-0.7,1.8,2470.952,13.29,0.017,121.0
2022-06-13T06:46:03,42.805,6.029,0.006,-0.011,-0.031,101.0,102.0,101.0,13.4,1505.2,325.4,-0.8,1.8,2470.906,13.29,0.012,151.4
2022-06-13T06:49:03,42.805,6.029,-0.01,-0.001,-0.016,102.0,103.0,100.0,13.4,1505.2,321.9,-0.7,1.8,2470.919,13.29,0.01,264.3
2022-06-13T06:52:03,42.805,6.029,0.013,-0.018,-0.026,103.0,103.0,100.0,13.4,1505.2,332.3,-0.8,1.8,2470.916,13.29,0.022,144.2
2022-06-13T06:55:03,42.805,6.029,-0.011,-0.008,-0.051,104.0,102.0,101.0,13.4,1505.2,331.6,-0.7,1.8,2470.913,13.29,0.013,234.0
2022-06-13T06:58:03,42.805,6.029,-0.015,0.0,0.01,103.0,103.0,101.0,13.4,1505.2,331.9,-0.7,1.8,2470.913,13.29,0.015,270.0
2022-06-13T07:04:03,42.805,6.029,-0.013,-0.002,-0.026,103.0,102.0,100.0,13.4,1505.2,327.8,-0.8,1.8,2470.936,13.28,0.013,261.3
2022-06-13T07:07:03,42.805,6.029,-0.009,-0.006,-0.011,105.0,103.0,100.0,13.3,1505.2,328.7,-0.8,1.8,2470.949,13.29,0.01,236.3
2022-06-13T07:10:03,42.805,6.029,-0.028,-0.013,-0.013,104.0,104.0,101.0,13.3,1505.2,329.9,-0.8,1.8,2470.896,13.29,0.03,245.1
2022-06-13T07:13:03,42.805,6.029,-0.019,-0.03,-0.005,104.0,103.0,103.0,13.4,1505.2,328.2,-0.8,1.8,2470.956,13.29,0.035,212.3
2022-06-13T07:16:03,42.805,6.029,-0.016,0.001,-0.024,104.0,104.0,100.0,13.4,1505.2,320.8,-0.8,1.8,2470.931,13.29,0.016,273.6
2022-06-13T07:19:03,42.805,6.029,-0.025,0.005,-0.013,104.0,104.0,101.0,13.4,1505.2,322.5,-0.8,1.8,2470.867,13.29,0.025,281.3
2022-06-13T07:22:03,42.805,6.029,-0.047,-0.003,-0.032,103.0,102.0,103.0,13.4,1505.2,323.1,-0.8,1.8,2470.911,13.29,0.047,266.4
2022-06-13T07:25:03,42.805,6.029,-0.029,0.006,0.0,104.0,104.0,100.0,13.4,1505.2,323.4,-0.7,1.8,2470.889,13.29,0.029,281.7
2022-06-13T07:28:03,42.805,6.029,-0.006,-0.011,0.014,104.0,102.0,101.0,13.4,1505.2,324.6,-0.8,1.8,2470.921,13.29,0.012,208.6
2022-06-13T07:31:03,42.805,6.029,-0.007,0.015,-0.008,105.0,102.0,101.0,13.4,1505.2,324.0,-0.7,1.8,2470.91,13.29,0.016,335.0
2022-06-13T07:34:03,42.805,6.029,-0.025,-0.004,-0.045,103.0,102.0,101.0,13.3,1505.2,327.7,-0.8,1.8,2470.892,13.29,0.025,260.9
2022-06-13T07:37:03,42.805,6.029,-0.005,0.011,-0.013,104.0,103.0,101.0,13.4,1505.2,327.7,-0.7,1.8,2470.906,13.29,0.012,335.6
2022-06-13T07:40:03,42.805,6.029,-0.011,0.0,-0.007,104.0,105.0,101.0,13.4,1505.2,321.4,-0.8,1.8,2470.876,13.29,0.011,270.0
2022-06-13T07:43:03,42.805,6.029,-0.02,0.024,-0.004,103.0,103.0,100.0,13.3,1505.2,326.9,-0.8,1.8,2470.879,13.29,0.031,320.2
2022-06-13T07:46:03,42.805,6.029,-0.027,-0.002,-0.038,105.0,102.0,100.0,13.4,1505.2,325.1,-0.7,1.8,2470.877,13.29,0.027,265.8
2022-06-13T07:49:03,42.805,6.029,-0.004,0.017,-0.005,104.0,101.0,101.0,13.3,1505.2,328.7,-0.7,1.8,2470.902,13.29,0.017,346.8
2022-06-13T07:52:03,42.805,6.029,0.0,-0.004,-0.005,103.0,101.0,100.0,13.4,1505.2,328.2,-0.8,1.8,2470.895,13.29,0.004,180.0
2022-06-13T07:55:03,42.805,6.029,-0.021,0.0,-0.022,103.0,102.0,100.0,13.4,1505.2,322.0,-0.7,1.8,2470.89,13.29,0.021,270.0
2022-06-13T07:58:03,42.805,6.029,-0.019,0.006,-0.04,102.0,101.0,101.0,13.4,1505.2,321.5,-0.7,1.8,2470.85,13.29,0.019,287.5
2022-06-13T08:04:03,42.805,6.029,-0.007,0.008,-0.015,103.0,103.0,100.0,13.4,1505.2,325.0,-0.7,1.8,2470.924,13.29,0.01,318.8
2022-06-13T08:07:03,42.805,6.029,-0.01,0.006,0.005,102.0,103.0,102.0,13.4,1505.2,327.9,-0.7,1.8,2470.91,13.29,0.011,301.0
2022-06-13T08:10:03,42.805,6.029,-0.011,0.032,0.006,102.0,101.0,102.0,13.4,1505.2,321.8,-0.8,1.8,2470.929,13.29,0.033,341.0
2022-06-13T08:13:03,42.805,6.029,-0.01,0.0,-0.04,104.0,102.0,100.0,13.4,1505.2,327.5,-0.7,1.8,2470.884,13.29,0.01,270.0
2022-06-13T08:16:03,42.805,6.029,-0.02,0.0,-0.02,103.0,102.0,101.0,13.4,1505.2,324.2,-0.8,1.8,2470.879,13.29,0.02,270.0
2022-06-13T08:19:03,42.805,6.029,-0.022,0.005,0.001,104.0,103.0,101.0,13.4,1505.2,321.4,-0.7,1.8,2470.814,13.29,0.022,282.8
2022-06-13T08:22:03,42.805,6.029,-0.005,0.006,-0.01,105.0,104.0,101.0,13.4,1505.2,329.6,-0.7,1.8,2470.866,13.29,0.007,320.2
2022-06-13T08:25:03,42.805,6.029,-0.019,0.026,0.0,104.0,104.0,101.0,13.3,1505.2,327.8,-0.7,1.9,2470.88,13.29,0.032,323.8
2022-06-13T08:28:03,42.805,6.029,-0.026,0.013,-0.027,104.0,104.0,103.0,13.3,1505.2,324.4,-0.8,1.8,2470.861,13.29,0.029,296.6
2022-06-13T08:31:03,42.805,6.029,-0.018,0.014,-0.004,105.0,106.0,102.0,13.3,1505.2,323.8,-0.8,1.8,2470.881,13.29,0.022,307.9
2022-06-13T08:34:03,42.805,6.029,-0.002,0.002,0.009,103.0,104.0,102.0,13.3,1505.2,324.6,-0.7,1.8,2470.875,13.29,0.002,315.0
2022-06-13T08:37:03,42.805,6.029,-0.032,-0.003,-0.025,104.0,104.0,101.0,13.3,1505.2,326.9,-0.7,1.8,2470.863,13.29,0.032,264.6
2022-06-13T08:40:03,42.805,6.029,-0.008,-0.007,-0.018,104.0,103.0,101.0,13.4,1505.2,326.0,-0.8,1.8,2470.841,13.29,0.01,228.8
2022-06-13T08:43:03,42.805,6.029,-0.024,-0.003,-0.031,103.0,105.0,101.0,13.4,1505.2,328.9,-0.8,1.8,2470.877,13.29,0.024,262.9
2022-06-13T08:46:03,42.805,6.029,-0.02,0.006,-0.038,104.0,104.0,101.0,13.4,1505.2,324.1,-0.8,1.8,2470.875,13.29,0.02,286.7
2022-06-13T08:49:03,42.805,6.029,-0.017,-0.008,-0.065,104.0,104.0,101.0,13.4,1505.2,326.3,-0.7,1.8,2470.86,13.29,0.018,244.8
2022-06-13T08:52:03,42.805,6.029,-0.012,0.006,0.007,106.0,103.0,102.0,13.3,1505.2,325.9,-0.8,1.8,2470.839,13.29,0.013,296.6
2022-06-13T08:55:03,42.805,6.029,-0.041,0.016,-0.025,104.0,102.0,102.0,13.4,1505.2,330.1,-0.8,1.8,2470.84,13.29,0.044,291.3
2022-06-13T08:58:03,42.805,6.029,-0.029,0.001,-0.009,104.0,103.0,102.0,13.4,1505.2,328.2,-0.7,1.8,2470.818,13.29,0.029,272.0
2022-06-13T09:04:03,42.805,6.029,-0.018,0.002,0.011,103.0,103.0,101.0,13.4,1505.2,320.9,-0.8,1.8,2470.886,13.28,0.018,276.3
2022-06-13T09:07:03,42.805,6.029,-0.035,-0.001,-0.028,103.0,103.0,102.0,13.3,1505.2,325.9,-0.7,1.8,2470.855,13.29,0.035,268.4
2022-06-13T09:10:03,42.805,6.029,-0.006,-0.01,-0.004,103.0,102.0,102.0,13.3,1505.2,327.4,-0.7,1.8,2470.845,13.29,0.011,211.0
2022-06-13T09:13:03,42.805,6.029,-0.009,0.021,-0.03,104.0,103.0,101.0,13.3,1505.2,324.5,-0.7,1.8,2470.843,13.29,0.022,336.8
2022-06-13T09:16:03,42.805,6.029,0.0,-0.007,0.001,103.0,102.0,102.0,13.4,1505.2,332.9,-0.8,1.8,2470.891,13.29,0.007,180.0
2022-06-13T09:19:03,42.805,6.029,-0.012,0.016,-0.029,103.0,104.0,99.0,13.3,1505.2,326.8,-0.8,1.8,2470.868,13.29,0.02,323.1
2022-06-13T09:22:03,42.805,6.029,-0.031,-0.01,-0.03,106.0,102.0,101.0,13.4,1505.2,329.9,-0.8,1.8,2470.833,13.29,0.032,252.1
2022-06-13T09:25:03,42.805,6.029,-0.04,0.016,-0.025,104.0,103.0,102.0,13.4,1505.2,324.4,-0.8,1.8,2470.833,13.29,0.043,291.8
2022-06-13T09:28:03,42.805,6.029,-0.024,-0.013,-0.029,103.0,103.0,101.0,13.4,1505.2,323.7,-0.7,1.8,2470.812,13.29,0.027,241.6
2022-06-13T09:31:03,42.805,6.029,-0.027,0.007,-0.031,104.0,101.0,100.0,13.4,1505.2,327.3,-0.8,1.8,2470.807,13.29,0.027,284.5
2022-06-13T09:34:03,42.805,6.029,-0.026,0.016,-0.022,103.0,103.0,101.0,13.3,1505.2,321.7,-0.8,1.8,2470.819,13.29,0.03,301.6
2022-06-13T09:37:03,42.805,6.029,-0.004,-0.002,-0.037,103.0,103.0,102.0,13.4,1505.2,320.1,-0.8,1.8,2470.805,13.29,0.004,243.4
2022-06-13T09:40:03,42.805,6.029,-0.014,0.024,-0.033,103.0,104.0,101.0,13.4,1505.2,325.3,-0.8,1.9,2470.792,13.29,0.027,329.7
2022-06-13T09:43:03,42.805,6.029,-0.012,-0.002,0.031,102.0,103.0,102.0,13.4,1505.2,330.6,-0.7,1.8,2470.805,13.29,0.012,260.5
2022-06-13T09:46:03,42.805,6.029,-0.025,0.015,-0.032,104.0,106.0,100.0,13.4,1505.2,331.3,-0.8,1.8,2470.854,13.29,0.029,301.0
2022-06-13T09:49:03,42.805,6.029,-0.026,-0.005,-0.002,104.0,102.0,101.0,13.4,1505.2,332.3,-0.8,1.8,2470.822,13.29,0.026,259.1
2022-06-13T09:52:03,42.805,6.029,-0.01,0.009,-0.031,102.0,103.0,101.0,13.4,1505.2,331.5,-0.8,1.9,2470.789,13.29,0.013,312.0